SCISAT 1

Satellite information

Favourite Embed

Satellite Type and Status

PAYLOADIN ORBIT

Key statistics

Satellite SCISAT 1 at a glance.

Uptime

7942

Days in orbit

Revolutions

≈ 14.8

Per day

Orbit

LEO

Low Earth Orbit

Inclination

73.9

Latest

Satellite identification and parameters

Extended collection of information and parameters for SCISAT 1.

Object identification

Identified? True

Debris? False

Object name: SCISAT 1

International designator: 2003-036A

Object number (NORAD): 27858

Object ID (CCSDS): 27858

Country: CANADA (CA)

Current information (Y/N): Y

RCS size: MEDIUM

Orbital parameters

Period: 97.253 minutes

Inclination: 73.9305 deg

SMA: 7005.336 km

Apoapsis: 631.905 km

Periapsis: 622.496 km

RAAN: 250.6585 deg

Eccentricy: 0.0006715

Argument of periapsis: 39.2623 deg

Mean anomaly: 320.9039 deg

Mean motion: 14.80673653 rev/day

Mean motion (dot): 0.00000934 rev/day2

B* drag term: 0.00012616 1/REarth

Two-line elements (TLE)

Creation date: May 11, 2025, 2:40 a.m.

Reference frame: TEME

Reference center: EARTH

Epoch: May 10, 2025, 3:29 p.m. UTC

TLE line 0: 0 SCISAT 1

TLE line 1: 1 27858U 03036A 25130.64579247 .00000934 00000-0 12616-3 0 9992

TLE line 2: 2 27858 73.9305 250.6585 0006715 39.2623 320.9039 14.80673653171855

Live tracking on map

Real-time ground track for satellite SCISAT 1.

In-orbit conjunctions

There are no conjunctions computed for SCISAT 1, at the moment. Check back to stay up to date, as we update our databases every day.

Go to all conjunctions

Associated space launch

SCISAT 1 was lifted into orbit during the mission ‘Pegasus XL | SCISAT-1’, on board a Pegasus XL space rocket.

The launch took place on Aug. 13, 2003, 2:09 a.m. from Vandenberg Space Force Base.

For more information about the launch, click the button.

Launch to space Pegasus XL | SCISAT-1
Pegasus XL | SCISAT-1

Agency: N/A

Status: Launch Successful

Launch date: Aug. 13, 2003, 2:09 a.m. UTC

Rocket: Pegasus XL

Launch pad: Vandenberg Space Force Base

Location: Air launch to orbit

...

Latest news about this satellite

There are no fresh news available about this satellite. Check back as we update our databases every day.


Newsletter sign-up

Weekly statistics, charts and insights to help you stay on top of the space industry.